Simultaneous Nadir Overpasses (SNOs) Predictions

Prediction of SNOs between LANDSAT-8 and NOAA-19 Satellite Orbit:

Table of predicted SNOs for the next 14.0 days since TLE Epoch: 2/27/2015
Index Date (LANDSAT-8) Time (LANDSAT-8) Lat,Lon (LANDSAT-8) SZA (LANDSAT-8 ) Date (NOAA-19) Time (NOAA-19) Lat,Lon (NOAA-19) SZA (NOAA-19 ) Distance(km) Time Diff (sec)
1 02/28/2015 20:45:19 -73.39, 50.37 98.86 02/28/2015 20:44:10 -73.47, 48.20 98.75 69.27 69
2 02/28/2015 21:34:55 72.83,-143.11 80.58 02/28/2015 21:35:03 72.82,-143.12 80.57 0.79 8
3 02/28/2015 22:24:38 -72.02, 23.03 100.23 02/28/2015 22:25:43 -71.98, 25.89 100.31 98.39 65
4 03/03/2015 02:19:10 72.90, 145.95 79.81 03/03/2015 02:18:34 72.91, 145.86 79.83 3.20 36
5 03/03/2015 03:08:40 -72.78, -46.64 100.32 03/03/2015 03:09:29 -72.79, -46.62 100.32 1.00 49
6 03/05/2015 07:03:21 73.17, 75.41 79.23 03/05/2015 07:02:10 73.25, 74.25 79.33 38.54 71
7 03/05/2015 07:52:55 -72.84,-117.60 101.11 03/05/2015 07:53:00 -72.86,-117.61 101.09 1.62 5
8 03/07/2015 12:37:10 -72.89, 171.42 101.92 03/07/2015 12:36:30 -72.88, 171.50 101.92 2.75 40
9 03/07/2015 13:26:37 72.79, -21.12 77.98 03/07/2015 13:27:33 72.81, -21.12 78.00 2.26 56
10 03/09/2015 17:21:19 -73.24, 101.04 102.43 03/09/2015 17:20:08 -73.31, 99.70 102.34 43.66 71
11 03/09/2015 18:10:51 72.88, -92.03 77.21 03/09/2015 18:11:03 72.88, -92.09 77.20 2.06 12
12 03/11/2015 22:55:06 72.90,-163.06 76.36 03/11/2015 22:54:32 72.90,-162.97 76.36 2.96 34




NCC Satellite Simultaneous Nadir Overpasses (SNOs) Prediction Service
